Regional Weather Roundup
Issued by NWS

Home | Current Version | Previous Version | Graphics & Text | Print | Product List | Glossary On
Versions: 1 2 3 4 5 6 7 8 9 10 11 12 13 14 15 16 17 18 19 20 21 22 23 24 25 26 27 28 29 30 31 32 33 34 35 36 37 38 39 40 41 42 43 44 45 46 47 48 49 50
000
ASUS45 KSLC 041610
RWRUT

UTAH REGIONAL WEATHER ROUNDUP
NATIONAL WEATHER SERVICE SALT LAKE CITY UT
1000 AM MDT FRI SEP 04 2015

UTZ001>011-023>025-041700-

NORTHERN UTAH

CITY           SKY/WX    TMP DP  RH WIND       PRES   REMARKS
BRIGHAM CITY   SUNNY     76  36  23 S17       29.85F
HILL AFB       MOSUNNY   77  36  23 S24G37    29.88S
LOGAN          SUNNY     63  46  54 CALM      29.87F
OGDEN          SUNNY     78  36  21 S24G37    29.85S
PROVO AIRPORT  MOSUNNY   75  41  29 SE10      29.92F
SALT LAKE CITY PTSUNNY   79  36  21 S25G33    29.86S
VERNAL         SUNNY     71  39  31 SE3       30.01S
WENDOVER       MOSUNNY   66  36  32 S6        29.86S
HEBER CITY     SUNNY     73  32  21 SW16      29.97S
WEST JORDAN    SUNNY     77  37  24 SE16G24   29.90F

$$

UTZ012>022-026-027-041700-

SOUTHERN/CENTRAL UTAH

CITY           SKY/WX    TMP DP  RH WIND       PRES   REMARKS
BLANDING       CLOUDY    67  49  54 W6        30.20R
BRYCE CANYON   SUNNY     62  43  49 SE12      30.17F
CEDAR CITY     SUNNY     71  40  32 S20G29    30.00F
DELTA          SUNNY     75  35  22 S20G29    29.94S
HANKSVILLE     MOSUNNY   72  48  43 CALM      29.99S
MILFORD        SUNNY     75  43  31 S26G36    29.96R
MOAB/CYNLANDS  PTSUNNY   77  47  34 SE13      29.98S
PRICE          PTSUNNY   66  36  32 E8        30.05S
ST GEORGE      SUNNY     81  48  32 SE16      29.90S
KANAB          SUNNY     72  54  53 S7        30.09F

$$

REGIONAL REPORTS     COLORADO/ARIZONA

CITY           SKY/WX    TMP DP  RH WIND       PRES   REMARKS
CRAIG, CO      MOSUNNY   69  45  41 E10       30.09F
GRAND JUNCTION PTSUNNY   68  50  52 E18       30.04R
RIFLE          MOSUNNY   63  50  62 NE3       30.09S
MONTROSE       CLOUDY    65  51  60 E6        30.14S
CORTEZ         MOSUNNY   69  49  48 SW3       30.13S
PAGE, AZ       PTSUNNY   76  52  43 CALM      30.00R
GRAND CANYON   SUNNY     64  49  57 SW10      30.16F
KINGMAN        SUNNY     79  51  37 SW13G21   29.95S
FLAGSTAFF      MOSUNNY   58  53  84 SW7       30.20F

$$

REGIONAL REPORTS    NEVADA/IDAHO/WYOMING

CITY           SKY/WX    TMP DP  RH WIND       PRES   REMARKS
LAS VEGAS, NV  MOSUNNY   82  45  27 S9        29.79S
ELY            SUNNY     67  30  25 S24G35    29.96R
ELKO           MOSUNNY   57  36  45 CALM      29.89F
POCATELLO, ID  MOSUNNY   60  38  43 SW6       29.90F
BURLEY         CLOUDY    59  40  49 W6        29.87S
EVANSTON, WY   SUNNY     69  30  23 S23G31    30.04F
ROCK SPRINGS   SUNNY     68  37  32 N3        30.07F
KEMMERER       SUNNY     66  30  26 S14G20    30.07F

$$



USA.gov is the U.S. government's official web portal to all federal, state and local government web resources and services.